World > North America > United States > Utah > Park City   City of Park City, UT

Hourly Park City, UT Regional Weather

Feedback E-mail the Weather

Quick WX

Park City, UT Weather Maps

°F °C°F °C
Park City Weather Map
UTC Time: 8/9/2022, 11:13
Your Time:

Park City, UT Regional Weather

Expires:202208091100;;726927
ASUS45 KSLC 091010
RWRUT 

UTAH REGIONAL WEATHER ROUNDUP
NATIONAL WEATHER SERVICE SALT LAKE CITY UT
400 AM MDT TUE AUG 09 2022


UTZ101>105-107>111-091100-

NORTHERN UTAH
  
CITY           SKY/WX    TMP DP  RH WIND       PRES   REMARKS
BRIGHAM CITY   CLEAR     62  53  74 MISG      30.14R                  
HILL AFB       CLEAR     66  39  37 E16       30.14S                  
LOGAN          CLEAR     57  53  86 CALM      30.16S                  
OGDEN          CLEAR     69  40  34 S9        30.14R                  
SALT LAKE CITY CLEAR     71  44  37 SE9       30.12S                  
TOOELE VALLEY  CLEAR     61  45  55 SE8       30.13S                  
WENDOVER       MOCLDY    74  55  51 CALM      30.11S                  
HEBER CITY       N/A     50  37  62 CALM      30.25S                  
WEST JORDAN    CLEAR     62  50  64 CALM      30.16S                  

$$


SKY/WX - Weather  TMP - Temperature  DP - Dew Point  RH - Humidity
WIND - Wind Direction/Speed PRES - Barometric Pressure VSB - Visibility
WCI - Wind Chill Index E13G22 Wind - East Wind 13 mph/Gusts of 22 mph

Trending Headlines

Park City Radar Loop



Park City Quick Facts


National Two Day Weather Forecast


E-mail the Park City Weather Forecast

Voice your opinion or tell us about page issues...